Regional Weather Roundup
Issued by NWS

Home | Current Version | Previous Version | Text Only | Print | Product List | Glossary Off
Versions: 1 2 3 4 5 6 7 8 9 10 11 12 13 14 15 16 17 18 19 20 21 22 23 24 25 26 27 28 29 30 31 32 33 34 35 36 37 38 39 40 41 42 43 44 45 46 47 48 49 50

000
ASUS45 KCYS 280810
RWRWY

WYOMING REGIONAL WEATHER ROUNDUP
NATIONAL WEATHER SERVICE CHEYENNE WY
100 AM MST SUN DEC 28 2014

NOTE:  "FAIR" INDICATES FEW OR NO CLOUDS BELOW 12,000 FEET
WITH NO SIGNIFICANT WEATHER AND/OR OBSTRUCTIONS TO VISIBILITY.

WYZ001-280900-
YELLOWSTONE NATIONAL PARK

CITY           SKY/WX    TMP DP  RH WIND       PRES   REMARKS
LK YELLOWSTONE   N/A     11   8  88 CALM      29.91F
W YELLOWSTONE  NOT AVBL

$$
WYZ002>013-054>058-071-098>099-280900-
NORTHERN WYOMING

CITY           SKY/WX    TMP DP  RH WIND       PRES   REMARKS
JACKSON        CLOUDY    16  14  93 SW9       29.99F WCI   4
CODY           FAIR      28   7  40 SW14G30   29.85F WCI  17
GREYBULL       FAIR       0  -3  87 S3        29.97F
WORLAND        FAIR      -7 -12  79 S6        29.95F WCI -20
SHERIDAN       FAIR       4  -1  80 SW6       29.87F WCI  -7
BUFFALO        FAIR      15   3  59 W9        29.86F WCI   3
GILLETTE       FAIR      18   5  57 SW15      29.89F WCI   4
HULETT           N/A    N/A N/A N/A MISG        N/A
NEWCASTLE      FAIR       9   3  78 CALM      29.97S

$$
WYZ014>020-022>026-101>103-280900-
CENTRAL WYOMING

CITY           SKY/WX    TMP DP  RH WIND       PRES   REMARKS
BIG PINEY      FAIR     -14 -18  82 CALM      30.02F
PINEDALE       FAIR      -6  -9  84 W3        30.02F
DUBOIS         NOT AVBL
LANDER         FAIR       8  -1  66 SE6       29.90F WCI  -2
RIVERTON       FAIR      12   1  61 S10       29.91F WCI  -1
CASPER         FAIR      19   8  62 SW22G31   29.93F WCI   2
DOUGLAS        FAIR      20   7  57 W3        29.94F

$$
WYZ021-027>030-104>119-280900-
SOUTHERN WYOMING

CITY           SKY/WX    TMP DP  RH WIND       PRES   REMARKS
EVANSTON       CLOUDY    14   6  70 SW17      30.05F WCI  -3
FORT BRIDGER   CLOUDY    18   7  63 W10       30.06F WCI   6
ROCK SPRINGS   LGT SNOW  14   9  80 W23       30.03F WCI  -5
DIXON          CLOUDY    19   6  59 S13       30.11F WCI   5
RAWLINS        MOCLDY    13   5  70 W22       29.98F WCI  -6
SARATOGA       CLOUDY    12   5  73 SE5       30.01F WCI   4
LARAMIE        FAIR      13   0  56 W23       29.92F WCI  -6
CHEYENNE       FAIR      13  -1  54 SW7       29.94F WCI   3
TORRINGTON     FAIR       3  -2  79 NE9       29.99F WCI -12
PINE BLUFFS    FAIR       5  -4  66 MISG      29.99F

$$



USA.gov is the U.S. government's official web portal to all federal, state and local government web resources and services.